Skip Page Navigation
NASA JPL Caltech
NASA Logo - Jet Propulsion Laboratory + View the NASA Portal
+ Center for Near-Earth Object Studies
JPL Home Earth Solar System Stars & Galaxies Technology
JPL Solar System Dynamics
BODIES ORBITS EPHEMERIDES TOOLS PHYSICAL DATA DISCOVERY FAQ SITE MAP
IMPORTANT: The SSD Announcement email list is now available. Major changes are coming in the near future, including possible hostname and/or URL changes. To be notified of such changes, subscribe to this email list.

Please visit this page for more details.


JPL Small-Body Database Browser
Search: [ help ]  
392803 (2012 TS206)
Classification: Main-belt Asteroid          SPK-ID: 2392803
Ephemeris | Orbit Diagram | Orbital Elements | Mission Design | Physical Parameters | Discovery Circumstances | Close-Approach Data ]

[ show orbit diagram ]
Orbital Elements at Epoch 2458600.5 (2019-Apr-27.0) TDB
Reference: JPL 12 (heliocentric ecliptic J2000)
 Element Value Uncertainty (1-sigma)   Units 
e .117779498978683 8.5585e-08  
a 2.565777595860644 7.2099e-08 au
q 2.263581596129447 2.1139e-07 au
i 7.740581437961195 1.707e-05 deg
node 257.3820421191222 0.00014091 deg
peri 208.9753906309286 0.00032851 deg
M 150.362196084371 0.00030611 deg
tp 2457973.506412611101
(2017-Aug-08.00641261)
0.0012572 TDB
period 1501.159848272961
4.11
6.3274e-05
1.732e-07
d
yr
n .2398145676585802 1.0108e-08 deg/d
Q 2.86797359559184 8.0591e-08 au
  Orbit Determination Parameters
   # obs. used (total)      80  
   data-arc span      6303 days (17.26 yr)  
   first obs. used      2000-11-24  
   last obs. used      2018-02-26  
   planetary ephem.      DE431  
   SB-pert. ephem.      SB431-N16  
   condition code      0  
   norm. resid. RMS      .62543  
   source      ORB  
   producer      Otto Matic  
   solution date      2018-Oct-04 11:45:28  

Additional Information
 Earth MOID = 1.28397 au 
 Jupiter MOID = 2.29026 au 
 T_jup = 3.410 
[ show covariance matrix ]

Ephemeris | Orbit Diagram | Orbital Elements | Mission Design | Physical Parameters | Discovery Circumstances | Close-Approach Data ]

Physical Parameter Table
Parameter Symbol Value Units Sigma Reference Notes
absolute magnitude H 17.2   n/a MPO437608  
diameter diameter 2.821 km 0.419 urn:nasa:pds:neowise_diameters_albedos::2.0[mainbelt] (http://adsabs.harvard.edu/abs/2011ApJ...741...68M)  
geometric albedo albedo 0.056   0.032 urn:nasa:pds:neowise_diameters_albedos::2.0[mainbelt] (http://adsabs.harvard.edu/abs/2011ApJ...741...68M)  

392803 (2012 TS206)          Discovered 2008-Oct-26 by Spacewatch at Kitt Peak
Reference: Last Updated: 2014-04-17

[ show close-approach data ]
Alternate Designations
 2012 TS206 = 2008 UE236 = 2010 AF104 = 2010 MR110 
Ephemeris | Orbit Diagram | Orbital Elements | Mission Design | Physical Parameters | Discovery Circumstances | Close-Approach Data ]
ABOUT SSD CREDITS/AWARDS PRIVACY/COPYRIGHT GLOSSARY LINKS
FirstGov
(server date/time)  
NASA Home Page
Site Manager:   Ryan S. Park
Webmaster  Alan B. Chamberlin